Showing default

VINDLER 2.3, 68486

Orbit data source: Space-Track

VINDLER 2.3, 68486 is a payload satellite owned by Sierra Nevada (US) in SSO that was launched on Mon, 30 Mar 2026 UTC via an FALCON 9 launch vehicle from the Air Force Western Test Range (AFWTR). Payload-class satellites include a variety of spacecraft equipped with specific instruments for various scientific and technological missions. These include communications satellites like Starlink; space stations such as the ISS; scientific satellites like the Hubble; Earth observation satellites from companies like Planet Labs, Umbra, and HawkEye 360; GPS; miniature CubeSats for education and research; and military/defense satellites.

Loading next visibility...
Identifier
68486, 2026-067BY
Orbit
SSO
Country
Flag of USUS
Related business
Manufacturer
Muon Space
Mission
Operational spacecraft
Bus & Motor
MUON HALO, Unknown motor
Mass
~130 kg wet, ~130 kg dry
Launch date (UTC)
2026-03-30 (3 months ago)
Launch vehicle
FALCON 9
Launch site
Air Force Western Test Range (AFWTR)
Object type
Payload
Rocket body
Debris
Shape & HBR
Unknown shape, 1.2 m
Radar Cross Section
Large (>1 m²)

Expand to show TLE details & history
Last TLE update: 2 days ago

TLE from 2 days ago
0 VINDLER 2.3
1 68486U 26067BY  26171.39578634  .00001132  00000-0  11720-3 0  9996
2 68486  97.7580 129.5960 0001217  52.3633 307.7696 14.91991260 12200
Epoch: 2026-06-20T09:29Z
TLE epoch observation values (Epoch: 2026-06-20T09:29:55.939Z)
Latitude
-0.00006°
Longitude
78.50191°
Altitude
594.25 km
Speed
7.563 km/s
True Right ascension
08h 38m 23s
True Declination
0° 00' 00"
Sunlit
Object was in daylight at epoch
Visualization orbit readout
Latitude
Unknown
Longitude
Unknown
Altitude
Unknown
Speed
Unknown
Apparent Right ascension
Unknown
Apparent Declination
Unknown
Sunlit
N/A
Visualization observer readout
Local Sidereal Time
12:25:19
Azimuth
Unknown
Elevation
Unknown
Doppler factor
Unknown
Orbital elements
Apogee altitude
589.594 km
Perigee altitude
587.898 km
Semi-major axis
6,966.883 km
Eccentricity
0.00012
Inclination
97.758°
RAAN
129.596°
Arg. of periapsis
52.3633°
True anomaly
307.75858°
Mean anomaly
307.7696°
Eccentric anomaly
307.76409°
Mean motion
3.73238 °/min
Orbital period
96.45 mins
BSTAR
0.0001172
Loading maneuver chart data...
Computing Atmospheric mass density...
Loading historical data...
Loading historical data...
Loading historical data...
Loading historical data...
Loading historical data...
Loading historical data...
Loading historical data...

Documentation

Showing up to 5 results
|